Time,TemperatureF,DewpointF,PressureIn,WindDirection,WindDirectionDegrees,WindSpeedMPH,WindSpeedGustMPH,Humidity,HourlyPrecipIn,Conditions,Clouds,dailyrainin,SoftwareType,DateUTC
2013-05-25 00:02:00,44.0,43.0,-100.00,NNW,340,3.0,8.0,95,0.14,,,-99.99,,2013-05-25 04:02:00,
2013-05-25 00:13:00,44.0,43.0,-100.00,North,355,3.0,7.0,94,0.03,,,-99.99,,2013-05-25 04:13:00,
2013-05-25 00:23:00,44.0,43.0,-100.00,NNW,335,3.0,6.0,94,0.00,,,-99.99,,2013-05-25 04:23:00,
2013-05-25 00:33:00,44.0,43.0,-100.00,NW,325,4.0,7.0,94,0.00,,,-99.99,,2013-05-25 04:33:00,
2013-05-25 00:43:00,44.0,42.0,-100.00,NNW,340,2.0,7.0,94,0.00,,,-99.99,,2013-05-25 04:43:00,
2013-05-25 00:52:00,44.0,42.0,-100.00,NNW,345,4.0,10.0,93,0.06,,,-99.99,,2013-05-25 04:52:00,
2013-05-25 01:02:00,44.0,42.0,-100.00,NNW,330,5.0,7.0,92,0.03,,,-99.99,,2013-05-25 05:02:00,
2013-05-25 01:12:00,44.0,42.0,-100.00,NNW,345,6.0,9.0,92,0.03,,,-99.99,,2013-05-25 05:12:00,
2013-05-25 01:22:00,44.0,41.0,-100.00,NNW,340,5.0,8.0,92,0.01,,,-99.99,,2013-05-25 05:22:00,
2013-05-25 01:32:00,43.0,41.0,-100.00,NNW,340,3.0,11.0,92,0.00,,,-99.99,,2013-05-25 05:32:00,
2013-05-25 01:43:00,43.0,41.0,-100.00,NNW,330,4.0,8.0,93,0.00,,,-99.99,,2013-05-25 05:43:00,
2013-05-25 01:52:00,43.0,42.0,-100.00,NW,325,4.0,7.0,93,0.00,,,-99.99,,2013-05-25 05:52:00,
2013-05-25 02:02:00,43.0,42.0,-100.00,North,350,5.0,7.0,93,0.01,,,-99.99,,2013-05-25 06:02:00,
2013-05-25 02:12:00,43.0,41.0,-100.00,NNW,340,6.0,10.0,93,0.00,,,-99.99,,2013-05-25 06:12:00,
2013-05-25 02:21:00,43.0,41.0,-100.00,NNW,340,6.0,9.0,92,0.00,,,-99.99,,2013-05-25 06:21:00,
2013-05-25 02:32:00,43.0,41.0,-100.00,NNW,330,4.0,8.0,92,0.37,,,-99.99,,2013-05-25 06:32:00,
2013-05-25 02:42:00,43.0,41.0,-100.00,North,350,4.0,11.0,92,0.13,,,-99.99,,2013-05-25 06:42:00,
2013-05-25 02:52:00,43.0,41.0,-100.00,NNW,345,4.0,8.0,93,0.01,,,-99.99,,2013-05-25 06:52:00,
2013-05-25 03:01:00,43.0,41.0,-100.00,NNW,340,4.0,12.0,93,0.00,,,-99.99,,2013-05-25 07:01:00,
2013-05-25 03:11:00,43.0,41.0,-100.00,NNW,345,4.0,9.0,92,0.00,,,-99.99,,2013-05-25 07:11:00,
2013-05-25 03:21:00,44.0,41.0,-100.00,NNW,345,6.0,12.0,91,0.01,,,-99.99,,2013-05-25 07:21:00,
2013-05-25 03:32:00,43.0,41.0,-100.00,NNW,340,6.0,11.0,90,0.00,,,-99.99,,2013-05-25 07:32:00,
2013-05-25 03:42:00,43.0,41.0,-100.00,NNW,340,6.0,16.0,89,0.07,,,-99.99,,2013-05-25 07:42:00,
2013-05-25 03:52:00,43.0,41.0,-100.00,NNW,340,5.0,7.0,90,0.01,,,-99.99,,2013-05-25 07:52:00,
2013-05-25 04:02:00,43.0,41.0,-100.00,NNW,330,5.0,11.0,90,0.10,,,-99.99,,2013-05-25 08:02:00,
2013-05-25 04:22:00,43.0,40.0,-100.00,North,350,7.0,11.0,91,0.07,,,-99.99,,2013-05-25 08:22:00,
2013-05-25 04:32:00,43.0,41.0,-100.00,NNW,340,6.0,11.0,91,0.06,,,-99.99,,2013-05-25 08:32:00,
2013-05-25 04:42:00,43.0,40.0,-100.00,North,350,6.0,12.0,92,0.08,,,-99.99,,2013-05-25 08:42:00,
2013-05-25 04:51:00,43.0,41.0,-100.00,North,350,6.0,11.0,92,0.20,,,-99.99,,2013-05-25 08:51:00,
2013-05-25 05:02:00,43.0,40.0,-100.00,NNW,340,6.0,10.0,92,0.06,,,-99.99,,2013-05-25 09:02:00,
2013-05-25 05:11:00,43.0,40.0,-100.00,NNW,340,6.0,13.0,91,0.03,,,-99.99,,2013-05-25 09:11:00,
2013-05-25 05:21:00,43.0,40.0,-100.00,NNW,340,6.0,10.0,91,0.00,,,-99.99,,2013-05-25 09:21:00,
2013-05-25 05:33:00,42.0,40.0,-100.00,NNW,330,7.0,11.0,91,0.07,,,-99.99,,2013-05-25 09:33:00,
2013-05-25 05:43:00,42.0,40.0,-100.00,NW,325,6.0,11.0,92,0.08,,,-99.99,,2013-05-25 09:43:00,
2013-05-25 05:52:00,42.0,40.0,-100.00,NNW,340,6.0,12.0,93,0.06,,,-99.99,,2013-05-25 09:52:00,
2013-05-25 06:03:00,42.0,40.0,-100.00,NNW,335,7.0,12.0,93,0.04,,,-99.99,,2013-05-25 10:03:00,
2013-05-25 06:12:00,42.0,40.0,-100.00,NNW,340,6.0,10.0,92,0.00,,,-99.99,,2013-05-25 10:12:00,
2013-05-25 06:22:00,42.0,40.0,-100.00,North,355,4.0,9.0,91,0.01,,,-99.99,,2013-05-25 10:22:00,
2013-05-25 06:33:00,43.0,40.0,-100.00,NNW,345,6.0,12.0,91,0.03,,,-99.99,,2013-05-25 10:33:00,
2013-05-25 06:42:00,43.0,40.0,-100.00,NNW,345,6.0,10.0,91,0.62,,,-99.99,,2013-05-25 10:42:00,
2013-05-25 06:52:00,42.0,40.0,-100.00,NNW,345,6.0,11.0,91,0.06,,,-99.99,,2013-05-25 10:52:00,
2013-05-25 07:02:00,42.0,40.0,-100.00,NNW,340,4.0,12.0,91,0.06,,,-99.99,,2013-05-25 11:02:00,
2013-05-25 07:12:00,42.0,40.0,-100.00,NNW,340,6.0,8.0,91,0.11,,,-99.99,,2013-05-25 11:12:00,
2013-05-25 07:22:00,42.0,40.0,-100.00,North,355,6.0,10.0,90,0.01,,,-99.99,,2013-05-25 11:22:00,
2013-05-25 07:32:00,42.0,40.0,-100.00,NNW,345,7.0,11.0,90,0.00,,,-99.99,,2013-05-25 11:32:00,
2013-05-25 07:42:00,42.0,40.0,-100.00,NNW,335,5.0,10.0,89,0.04,,,-99.99,,2013-05-25 11:42:00,
2013-05-25 07:52:00,42.0,40.0,-100.00,NW,325,4.0,14.0,90,0.01,,,-99.99,,2013-05-25 11:52:00,
2013-05-25 08:01:00,43.0,40.0,-100.00,NNW,340,4.0,11.0,89,0.00,,,-99.99,,2013-05-25 12:01:00,
2013-05-25 08:12:00,43.0,40.0,-100.00,NW,325,3.0,7.0,89,0.01,,,-99.99,,2013-05-25 12:12:00,
2013-05-25 08:22:00,43.0,39.0,-100.00,NNW,340,3.0,9.0,88,0.01,,,-99.99,,2013-05-25 12:22:00,
2013-05-25 08:32:00,43.0,40.0,-100.00,NNW,330,2.0,9.0,89,0.08,,,-99.99,,2013-05-25 12:32:00,
2013-05-25 08:42:00,43.0,40.0,-100.00,NNW,345,4.0,6.0,90,0.03,,,-99.99,,2013-05-25 12:42:00,
2013-05-25 08:52:00,43.0,41.0,-100.00,NNW,335,1.0,6.0,91,0.01,,,-99.99,,2013-05-25 12:52:00,
2013-05-25 09:02:00,42.0,40.0,-100.00,NNW,345,4.0,7.0,91,0.03,,,-99.99,,2013-05-25 13:02:00,
2013-05-25 09:11:00,42.0,40.0,-100.00,NNW,340,3.0,10.0,91,0.01,,,-99.99,,2013-05-25 13:11:00,
2013-05-25 09:22:00,43.0,41.0,-100.00,SSW,200,2.0,7.0,91,0.00,,,-99.99,,2013-05-25 13:22:00,
2013-05-25 09:32:00,43.0,41.0,-100.00,NNW,345,3.0,7.0,91,0.01,,,-99.99,,2013-05-25 13:32:00,
2013-05-25 09:42:00,42.0,40.0,-100.00,NNW,330,4.0,7.0,91,0.01,,,-99.99,,2013-05-25 13:42:00,
2013-05-25 09:52:00,42.0,40.0,-100.00,NNW,345,4.0,12.0,89,0.03,,,-99.99,,2013-05-25 13:52:00,
2013-05-25 10:02:00,42.0,39.0,-100.00,NNW,345,4.0,17.0,88,0.01,,,-99.99,,2013-05-25 14:02:00,
2013-05-25 10:11:00,42.0,39.0,-100.00,NNW,345,6.0,10.0,87,0.01,,,-99.99,,2013-05-25 14:11:00,
2013-05-25 10:22:00,42.0,38.0,-100.00,NNW,330,7.0,16.0,87,0.01,,,-99.99,,2013-05-25 14:22:00,
2013-05-25 10:32:00,42.0,38.0,-100.00,North,350,6.0,13.0,87,0.01,,,-99.99,,2013-05-25 14:32:00,
2013-05-25 10:42:00,42.0,38.0,-100.00,NNW,345,7.0,12.0,87,0.00,,,-99.99,,2013-05-25 14:42:00,
2013-05-25 10:52:00,42.0,39.0,-100.00,NNW,335,6.0,13.0,87,0.03,,,-99.99,,2013-05-25 14:52:00,
2013-05-25 11:01:00,42.0,39.0,-100.00,NNW,335,6.0,11.0,90,0.04,,,-99.99,,2013-05-25 15:01:00,
2013-05-25 11:11:00,41.0,39.0,-100.00,North,355,6.0,11.0,91,0.03,,,-99.99,,2013-05-25 15:11:00,
2013-05-25 11:22:00,41.0,39.0,-100.00,NNW,345,8.0,12.0,91,0.04,,,-99.99,,2013-05-25 15:22:00,
2013-05-25 11:33:00,42.0,39.0,-100.00,NW,325,6.0,18.0,90,0.11,,,-99.99,,2013-05-25 15:33:00,
2013-05-25 11:43:00,42.0,39.0,-100.00,North,350,7.0,12.0,90,0.08,,,-99.99,,2013-05-25 15:43:00,
2013-05-25 11:53:00,42.0,39.0,-100.00,NNW,340,7.0,15.0,89,0.01,,,-99.99,,2013-05-25 15:53:00,
2013-05-25 12:03:00,42.0,38.0,-100.00,NNW,335,7.0,15.0,89,0.03,,,-99.99,,2013-05-25 16:03:00,
2013-05-25 12:12:00,42.0,39.0,-100.00,NNW,335,9.0,13.0,89,0.03,,,-99.99,,2013-05-25 16:12:00,
2013-05-25 12:23:00,41.0,38.0,-100.00,North,350,6.0,11.0,90,0.04,,,-99.99,,2013-05-25 16:23:00,
2013-05-25 12:32:00,40.0,38.0,-100.00,NNW,330,7.0,13.0,90,0.01,,,-99.99,,2013-05-25 16:32:00,
2013-05-25 12:42:00,40.0,38.0,-100.00,North,0,6.0,13.0,90,0.03,,,-99.99,,2013-05-25 16:42:00,
2013-05-25 12:52:00,40.0,38.0,-100.00,NNW,345,7.0,12.0,90,0.03,,,-99.99,,2013-05-25 16:52:00,
2013-05-25 13:03:00,40.0,38.0,-100.00,NNW,345,7.0,16.0,90,0.03,,,-99.99,,2013-05-25 17:03:00,
2013-05-25 13:11:00,40.0,38.0,-100.00,NNW,335,9.0,12.0,90,0.03,,,-99.99,,2013-05-25 17:11:00,
2013-05-25 13:22:00,40.0,38.0,-100.00,North,350,6.0,12.0,90,0.03,,,-99.99,,2013-05-25 17:22:00,
2013-05-25 13:32:00,40.0,38.0,-100.00,NNW,335,8.0,13.0,91,0.01,,,-99.99,,2013-05-25 17:32:00,
2013-05-25 13:42:00,39.0,37.0,-100.00,NNW,335,9.0,16.0,91,0.01,,,-99.99,,2013-05-25 17:42:00,
2013-05-25 13:52:00,39.0,36.0,-100.00,NNW,335,9.0,17.0,90,0.01,,,-99.99,,2013-05-25 17:52:00,
2013-05-25 14:02:00,39.0,36.0,-100.00,North,350,9.0,18.0,89,0.00,,,-99.99,,2013-05-25 18:02:00,
2013-05-25 14:11:00,39.0,36.0,-100.00,NNW,335,9.0,16.0,90,0.00,,,-99.99,,2013-05-25 18:11:00,
2013-05-25 14:21:00,39.0,36.0,-100.00,NNW,330,9.0,16.0,88,0.00,,,-99.99,,2013-05-25 18:21:00,
2013-05-25 14:32:00,39.0,36.0,-100.00,North,350,8.0,16.0,87,0.00,,,-99.99,,2013-05-25 18:32:00,
2013-05-25 14:42:00,39.0,35.0,-100.00,NNW,345,10.0,19.0,86,0.00,,,-99.99,,2013-05-25 18:42:00,
2013-05-25 14:52:00,39.0,35.0,-100.00,NNW,335,9.0,16.0,86,0.00,,,-99.99,,2013-05-25 18:52:00,
2013-05-25 15:02:00,39.0,35.0,-100.00,North,350,7.0,17.0,85,0.00,,,-99.99,,2013-05-25 19:02:00,
2013-05-25 15:11:00,39.0,35.0,-100.00,NNW,340,9.0,16.0,83,0.00,,,-99.99,,2013-05-25 19:11:00,
2013-05-25 15:22:00,39.0,35.0,-100.00,NW,325,5.0,16.0,83,0.00,,,-99.99,,2013-05-25 19:22:00,
2013-05-25 15:32:00,39.0,35.0,-100.00,NNW,340,9.0,14.0,82,0.00,,,-99.99,,2013-05-25 19:32:00,
2013-05-25 15:42:00,40.0,35.0,-100.00,North,350,6.0,12.0,82,0.00,,,-99.99,,2013-05-25 19:42:00,
2013-05-25 15:52:00,41.0,35.0,-100.00,NNW,340,7.0,16.0,78,0.00,,,-99.99,,2013-05-25 19:52:00,
2013-05-25 16:02:00,41.0,35.0,-100.00,NNW,335,6.0,14.0,79,0.00,,,-99.99,,2013-05-25 20:02:00,
2013-05-25 16:11:00,41.0,35.0,-100.00,NNW,345,4.0,12.0,80,0.00,,,-99.99,,2013-05-25 20:11:00,
2013-05-25 16:22:00,40.0,35.0,-100.00,North,350,7.0,17.0,79,0.00,,,-99.99,,2013-05-25 20:22:00,
2013-05-25 16:32:00,40.0,35.0,-100.00,NNW,330,7.0,16.0,79,0.00,,,-99.99,,2013-05-25 20:32:00,
2013-05-25 16:42:00,40.0,35.0,-100.00,NNW,345,7.0,12.0,79,0.00,,,-99.99,,2013-05-25 20:42:00,
2013-05-25 16:52:00,40.0,34.0,-100.00,North,350,9.0,16.0,78,0.00,,,-99.99,,2013-05-25 20:52:00,
2013-05-25 17:02:00,40.0,35.0,-100.00,NNW,340,7.0,14.0,79,0.00,,,-99.99,,2013-05-25 21:02:00,
2013-05-25 17:11:00,40.0,35.0,-100.00,NNW,340,9.0,14.0,79,0.00,,,-99.99,,2013-05-25 21:11:00,
2013-05-25 17:21:00,40.0,34.0,-100.00,NNW,345,8.0,14.0,79,0.00,,,-99.99,,2013-05-25 21:21:00,
2013-05-25 17:33:00,40.0,34.0,-100.00,NNW,335,7.0,14.0,79,0.00,,,-99.99,,2013-05-25 21:33:00,
2013-05-25 17:43:00,40.0,34.0,-100.00,NNW,330,8.0,12.0,79,0.00,,,-99.99,,2013-05-25 21:43:00,
2013-05-25 17:53:00,40.0,34.0,-100.00,North,350,11.0,17.0,79,0.00,,,-99.99,,2013-05-25 21:53:00,
2013-05-25 18:03:00,39.0,34.0,-100.00,NNW,330,9.0,13.0,81,0.01,,,-99.99,,2013-05-25 22:03:00,
2013-05-25 18:13:00,39.0,35.0,-100.00,North,350,7.0,13.0,84,0.03,,,-99.99,,2013-05-25 22:13:00,
2013-05-25 18:23:00,38.0,35.0,-100.00,NNW,335,4.0,9.0,86,0.07,,,-99.99,,2013-05-25 22:23:00,
2013-05-25 18:32:00,38.0,34.0,-100.00,NNW,335,7.0,13.0,87,0.06,,,-99.99,,2013-05-25 22:32:00,
2013-05-25 18:42:00,37.0,34.0,-100.00,NNW,330,4.0,11.0,88,0.03,,,-99.99,,2013-05-25 22:42:00,
2013-05-25 18:52:00,37.0,34.0,-100.00,NNW,340,7.0,14.0,89,0.03,,,-99.99,,2013-05-25 22:52:00,
2013-05-25 19:02:00,37.0,34.0,-100.00,North,350,7.0,11.0,90,0.03,,,-99.99,,2013-05-25 23:02:00,
2013-05-25 19:12:00,36.0,34.0,-100.00,NNW,340,4.0,10.0,90,0.16,,,-99.99,,2013-05-25 23:12:00,
2013-05-25 19:22:00,36.0,34.0,-100.00,NNW,330,4.0,10.0,90,0.08,,,-99.99,,2013-05-25 23:22:00,
2013-05-25 19:32:00,36.0,33.0,-100.00,NNW,345,7.0,13.0,91,0.11,,,-99.99,,2013-05-25 23:32:00,
2013-05-25 19:42:00,35.0,33.0,-100.00,NNW,335,8.0,12.0,91,0.18,,,-99.99,,2013-05-25 23:42:00,
2013-05-25 19:52:00,35.0,32.0,-100.00,NNW,335,6.0,12.0,91,0.06,,,-99.99,,2013-05-25 23:52:00,
2013-05-25 20:02:00,35.0,32.0,-100.00,NNW,335,6.0,12.0,91,0.08,,,-99.99,,2013-05-26 00:02:00,
2013-05-25 20:11:00,34.0,32.0,-100.00,NNW,345,7.0,10.0,91,0.13,,,-99.99,,2013-05-26 00:11:00,
2013-05-25 20:22:00,34.0,32.0,-100.00,NNW,335,6.0,9.0,92,0.51,,,-99.99,,2013-05-26 00:22:00,
2013-05-25 20:32:00,33.0,31.0,-100.00,NNW,335,4.0,13.0,92,0.48,,,-99.99,,2013-05-26 00:32:00,
2013-05-25 20:42:00,33.0,31.0,-100.00,NNW,330,2.0,9.0,92,1.30,,,-99.99,,2013-05-26 00:42:00,
2013-05-25 20:52:00,32.0,31.0,-100.00,NW,320,5.0,8.0,93,2.56,,,-99.99,,2013-05-26 00:52:00,
2013-05-25 21:01:00,32.0,30.0,-100.00,NW,310,3.0,6.0,93,3.50,,,-99.99,,2013-05-26 01:01:00,
2013-05-25 21:11:00,32.0,30.0,-100.00,NNW,345,4.0,7.0,93,4.07,,,-99.99,,2013-05-26 01:11:00,
2013-05-25 21:21:00,32.0,30.0,-100.00,WNW,300,2.0,7.0,93,2.22,,,-99.99,,2013-05-26 01:21:00,
2013-05-25 21:32:00,32.0,30.0,-100.00,NW,325,4.0,9.0,94,1.18,,,-99.99,,2013-05-26 01:32:00,
2013-05-25 21:42:00,32.0,31.0,-100.00,NNW,340,2.0,7.0,94,0.28,,,-99.99,,2013-05-26 01:42:00,
2013-05-25 21:52:00,32.0,31.0,-100.00,NNW,330,4.0,9.0,94,0.33,,,-99.99,,2013-05-26 01:52:00,
2013-05-25 22:02:00,32.0,31.0,-100.00,NW,315,4.0,6.0,94,0.43,,,-99.99,,2013-05-26 02:02:00,
2013-05-25 22:11:00,32.0,31.0,-100.00,NW,325,4.0,7.0,94,0.17,,,-99.99,,2013-05-26 02:11:00,
2013-05-25 22:21:00,32.0,31.0,-100.00,NNW,335,4.0,9.0,94,0.13,,,-99.99,,2013-05-26 02:21:00,
2013-05-25 22:32:00,32.0,31.0,-100.00,NNW,335,4.0,10.0,94,0.03,,,-99.99,,2013-05-26 02:32:00,
2013-05-25 22:42:00,32.0,31.0,-100.00,NNW,340,4.0,12.0,94,0.01,,,-99.99,,2013-05-26 02:42:00,
2013-05-25 22:52:00,33.0,31.0,-100.00,NNW,330,4.0,11.0,94,0.00,,,-99.99,,2013-05-26 02:52:00,
2013-05-25 23:01:00,33.0,32.0,-100.00,NNW,335,6.0,10.0,94,0.00,,,-99.99,,2013-05-26 03:01:00,
2013-05-25 23:11:00,33.0,32.0,-100.00,NW,315,3.0,9.0,94,0.00,,,-99.99,,2013-05-26 03:11:00,
2013-05-25 23:22:00,33.0,32.0,-100.00,NNW,335,7.0,11.0,94,0.00,,,-99.99,,2013-05-26 03:22:00,
2013-05-25 23:33:00,33.0,32.0,-100.00,NNW,340,4.0,11.0,94,0.00,,,-99.99,,2013-05-26 03:33:00,
2013-05-25 23:43:00,33.0,32.0,-100.00,NNW,335,6.0,11.0,94,0.00,,,-99.99,,2013-05-26 03:43:00,
2013-05-25 23:53:00,34.0,32.0,-100.00,North,350,7.0,12.0,94,0.00,,,-99.99,,2013-05-26 03:53:00,